This demonstration page uses our WeatherBlox Daily Observations layout. Learn more.

Left ArrowRight Arrow

Hourly Observations for October 5, 2016

Temp ( °F °C ) Dew Point ( °F °C ) Humidity (%) Winds ( mph kmh ) Pressure ( in mb ) Visibility ( mi km ) Precip ( " mm )
12:51 am 00:51 Clear 54 12.2 33 0.6 45 45 E 5 7 29.82 1010 10 16 0.00 0.00
1:51 am 01:51 Clear 52 11.1 33 0.6 49 49 E 5 7 29.82 1010 10 16 0.00 0.00
2:51 am 02:51 Clear 51 10.6 33 0.6 50 50 Calm 29.82 1010 10 16 0.00 0.00
3:51 am 03:51 Clear 50 10 33 0.6 52 52 SSE 3 6 29.83 1010 10 16 0.00 0.00
4:51 am 04:51 Clear 50 10 33 0.6 52 52 Calm 29.84 1010 10 16 0.00 0.00
5:51 am 05:51 Clear 48 8.9 33 0.6 56 56 WSW 3 6 29.85 1011 10 16 0.00 0.00
6:51 am 06:51 Sunny 50 10 35 1.7 57 57 Calm 29.88 1012 10 16 0.00 0.00
7:51 am 07:51 Sunny 58 14.4 34 1.1 41 41 Calm 29.89 1012 10 16 0.00 0.00
8:51 am 08:51 Sunny 65 18.3 35 1.7 33 33 Calm 29.88 1012 10 16 0.00 0.00
9:51 am 09:51 Sunny 72 22.2 33 0.6 24 24 ESE 5 7 29.87 1012 10 16 0.00 0.00
10:51 am 10:51 Sunny 75 23.9 34 1.1 22 22 undefined N/A 29.86 1011 10 16 0.00 0.00
11:51 am 11:51 Sunny 76 24.4 33 0.6 21 21 VRB 3 6 29.84 1011 10 16 0.00 0.00
12:51 pm 12:51 Sunny 81 27.2 32 0 17 17 NW 6 9 29.81 1009 10 16 0.00 0.00
1:51 pm 13:51 Sunny 83 28.3 32 0 16 16 NNW 7 11 29.78 1009 10 16 0.00 0.00
2:51 pm 14:51 Sunny 83 28.3 32 0 16 16 NNW 10 17 29.78 1008 10 16 0.00 0.00
3:51 pm 15:51 Sunny 83 28.3 32 0 16 16 NNW 9 15 29.76 1008 10 16 0.00 0.00
4:51 pm 16:51 Sunny 81 27.2 33 0.6 18 18 WNW 7 11 29.76 1008 10 16 0.00 0.00
5:51 pm 17:51 Sunny 76 24.4 34 1.1 22 22 NW 6 9 29.78 1008 10 16 0.00 0.00
6:51 pm 18:51 Clear 73 22.8 35 1.7 25 25 NNW 3 6 29.78 1008 10 16 0.00 0.03
7:51 pm 19:51 Clear 68 20 36 2.2 31 31 Calm 29.78 1008 10 16 0.00 0.00
8:51 pm 20:51 Clear 66 18.9 36 2.2 33 33 Calm 29.78 1009 10 16 0.00 0.00
9:51 pm 21:51 Clear 63 17.2 37 2.8 38 38 SE 5 7 29.79 1009 10 16 0.00 0.00
10:51 pm 22:51 Clear 61 16.1 36 2.2 39 39 Calm 29.80 1009 10 16 0.00 0.00
11:51 pm 23:51 Clear 58 14.4 37 2.8 46 46 E 5 7 29.80 1009 10 16 0.00 0.00

Powered by AerisWeather